Weather History for YPEA - December, 2012

Change the Weather History Date:

Saturday, December 29, 2012

  Actual Average (YPPH) Record (YPPH)
Temperature  
Mean Temperature 94 °F -  
Max Temperature 107 °F 85 °F 104 °F (2012)
Min Temperature 78 °F 60 °F 46 °F (2003)
Cooling Degree Days 29    
Growing Degree Days 44 (Base 50)    
Moisture  
Dew Point 52 °F    
Average Humidity 26    
Maximum Humidity 47    
Minimum Humidity 7    
Precipitation  
Precipitation 0.00 in - - ()
Sea Level Pressure  
Sea Level Pressure 29.89 in    
Wind  
Wind Speed 12 mph ()    
Max Wind Speed 21 mph    
Max Gust Speed 29 mph    
Visibility 6.2 miles    
Events      
Averages and records for this station are not official NWS values.
T = Trace of Precipitation, MM = Missing Value Source: Averaged Metar Reports

Daily Weather History Graph

Daily Weather History Graph

Search for Another Location

Airport or City:

Trip Planner

Search our weather history database for the weather conditions in past years. The results will help you decide how hot, cold, wet, or windy it might be!

Date:

Astronomy

Dec. 29, 2012 Rise Set
Actual Time 5:12 AM AWST 7:23 PM AWST
Civil Twilight 4:43 AM AWST 7:51 PM AWST
Nautical Twilight 4:09 AM AWST 8:26 PM AWST
Astronomical Twilight 3:32 AM AWST 9:03 PM AWST
Moon 7:51 PM AWST (12/29) 5:49 AM AWST (12/29)
Length of Visible Light 15h 07m
Length of Day
14h 11m
Waxing Gibbous, 99% of the Moon is Illuminated
Dec 29
Waxing Gibbous
Jan 5
Last Quarter
Jan 12
New
Jan 19
First Quarter
Jan 27
Full

Hourly Weather History & Observations

Time (AWST) Temp. Heat Index Dew Point Humidity Pressure Visibility Wind Dir Wind Speed Gust Speed Precip Events Conditions
12:00 AM 84.2 °F 82.8 °F 53.6 °F 35% 29.98 in 6.2 mi North 5.8 mph - N/A   Unknown
1:00 AM 84.2 °F 82.8 °F 53.6 °F 35% 29.92 in 6.2 mi ESE 15.0 mph - N/A   Unknown
2:00 AM 84.2 °F 82.8 °F 53.6 °F 35% 29.92 in 6.2 mi East 13.8 mph - N/A   Unknown
3:00 AM 86 °F - 53 °F 22% 29.91 in - East 15.0 mph - -  
3:00 AM 86.0 °F 84.2 °F 53.6 °F 33% 29.92 in 6.2 mi East 15.0 mph - N/A   Unknown
4:00 AM 86.0 °F - 51.8 °F 31% 29.92 in 6.2 mi East 16.1 mph - N/A   Unknown
5:00 AM 84.2 °F 82.8 °F 53.6 °F 35% 29.92 in 6.2 mi East 17.3 mph - N/A   Unknown
5:59 AM 84.2 °F - 51.8 °F 33% 29.92 in 6.2 mi East 17.3 mph 28.8 mph N/A   Unknown
6:00 AM 84 °F - 53 °F 24% 29.93 in - East 17.3 mph - -  
6:00 AM 84.2 °F 82.8 °F 53.6 °F 35% 29.92 in 6.2 mi East 17.3 mph 28.8 mph N/A   Unknown
7:00 AM 86.0 °F 84.2 °F 53.6 °F 33% 29.95 in 6.2 mi East 17.3 mph - N/A   Unknown
8:00 AM 86.0 °F 84.2 °F 53.6 °F 33% 29.95 in 6.2 mi East 17.3 mph - N/A   Unknown
9:00 AM 91 °F - 53 °F 18% 29.94 in - East 18.4 mph - -  
9:00 AM 91.4 °F 89.1 °F 53.6 °F 28% 29.92 in 6.2 mi East 18.4 mph - N/A   Unknown
10:00 AM 96.8 °F - 51.8 °F 22% 29.92 in 6.2 mi ENE 13.8 mph - N/A   Unknown
11:00 AM 102.2 °F - 46.4 °F 15% 29.92 in 6.2 mi NE 8.1 mph - N/A   Unknown
12:00 PM 103 °F - 45 °F 7% 29.90 in - ENE 8.1 mph - -  
12:00 PM 104.0 °F - 44.6 °F 13% 29.89 in 6.2 mi ENE 8.1 mph - N/A   Unknown
1:00 PM 102.2 °F - 42.8 °F 13% 29.86 in 6.2 mi ESE 6.9 mph - N/A   Unknown
2:00 PM 105.8 °F - 42.8 °F 12% 29.86 in 6.2 mi North 4.6 mph - N/A   Unknown
3:00 PM 101 °F - 51 °F 11% 29.83 in - South 12.7 mph - -  
3:00 PM 102.2 °F - 51.8 °F 18% 29.83 in 6.2 mi South 12.7 mph - N/A   Unknown
4:00 PM 98.6 °F 96.4 °F 53.6 °F 22% 29.83 in 6.2 mi South 20.7 mph - N/A   Unknown
5:00 PM 98.6 °F - 51.8 °F 21% 29.80 in 6.2 mi South 20.7 mph - N/A   Unknown
6:00 PM 96 °F - 53 °F 14% 29.82 in - South 20.7 mph - -  
6:00 PM 96.8 °F - 51.8 °F 22% 29.83 in 6.2 mi South 20.7 mph - N/A   Unknown
7:00 PM 93.2 °F 90.8 °F 53.6 °F 26% 29.83 in 6.2 mi South 12.7 mph - N/A   Unknown
8:00 PM 87.8 °F 86.1 °F 55.4 °F 33% 29.86 in 6.2 mi SSE 8.1 mph - N/A   Unknown
9:00 PM 83 °F - 56 °F 29% 29.86 in - South 4.6 mph - -  
9:00 PM 82.4 °F 81.7 °F 55.4 °F 39% 29.86 in 6.2 mi South 4.6 mph - N/A   Unknown
10:00 PM 82.4 °F 82.0 °F 57.2 °F 42% 29.86 in 6.2 mi SSE 6.9 mph - N/A   Unknown
11:00 PM 78.8 °F - 57.2 °F 47% 29.86 in 6.2 mi SE 2.3 mph - N/A   Unknown